ELY404 LLER-LLBG

Flight info

Callsign ELY404
Flight time 0h 34m
Altitude 21000
Route NURIT J10 AMMIT
Aircraft B739/M-SDE2E3FGHIRWXY/LB1

Departure

Time 2026-04-26 16:51
Airport Ramon International Airport (LLER)

Arrival

Time 2026-04-26 17:25
Airport Ben Gurion International Airport (LLBG)
Time Latitude Longitude Altitude Speed Heading
2026-04-26 16:31 29.72674 35.00818 302 ft 0 kts 283°
2026-04-26 16:44 29.72674 35.00820 299 ft 1 kts 283°
2026-04-26 16:44 29.72670 35.00838 302 ft 3 kts 285°
2026-04-26 16:44 29.72664 35.00860 298 ft 3 kts 289°
2026-04-26 16:44 29.72657 35.00882 299 ft 3 kts 295°
2026-04-26 16:45 29.72647 35.00902 297 ft 3 kts 307°
2026-04-26 16:45 29.72634 35.00917 300 ft 3 kts 335°
2026-04-26 16:45 29.72621 35.00921 297 ft 1 kts 13°
2026-04-26 16:45 29.72620 35.00921 297 ft 1 kts 14°
2026-04-26 16:47 29.72621 35.00921 297 ft 1 kts 14°
2026-04-26 16:47 29.72649 35.00929 296 ft 7 kts 13°
2026-04-26 16:47 29.72712 35.00945 298 ft 12 kts 13°
2026-04-26 16:48 29.72808 35.00971 297 ft 15 kts 13°
2026-04-26 16:48 29.72860 35.01058 294 ft 17 kts 101°
2026-04-26 16:48 29.72813 35.01202 294 ft 10 kts 151°
2026-04-26 16:48 29.72730 35.01189 292 ft 17 kts 194°
2026-04-26 16:49 29.72596 35.01152 295 ft 20 kts 193°
2026-04-26 16:49 29.72459 35.01113 300 ft 18 kts 194°
2026-04-26 16:49 29.72343 35.01080 297 ft 16 kts 194°
2026-04-26 16:49 29.72238 35.01081 300 ft 16 kts 131°
2026-04-26 16:50 29.72205 35.01197 302 ft 15 kts 104°
2026-04-26 16:50 29.72266 35.01281 304 ft 21 kts 13°
2026-04-26 16:50 29.72640 35.01386 295 ft 94 kts 14°
2026-04-26 16:50 29.73504 35.01630 300 ft 158 kts 13°
2026-04-26 16:51 29.74673 35.01922 706 ft 178 kts
2026-04-26 16:51 29.75952 35.02202 1337 ft 189 kts
2026-04-26 16:51 29.77223 35.02456 2363 ft 178 kts
2026-04-26 16:51 29.78440 35.02724 3035 ft 182 kts
2026-04-26 16:52 29.79694 35.02996 3558 ft 186 kts
2026-04-26 16:52 29.80574 35.03180 3706 ft 202 kts
2026-04-26 16:52 29.82539 35.03584 4032 ft 229 kts
2026-04-26 16:52 29.84207 35.03805 4199 ft 254 kts
2026-04-26 16:53 29.86026 35.04005 4721 ft 267 kts
2026-04-26 16:53 29.87883 35.04214 5509 ft 270 kts
2026-04-26 16:53 29.89778 35.04433 6199 ft 277 kts
2026-04-26 16:53 29.91713 35.04669 6889 ft 281 kts
2026-04-26 16:54 29.93668 35.04915 7623 ft 285 kts
2026-04-26 16:54 29.95667 35.05166 8259 ft 292 kts
2026-04-26 16:54 29.97696 35.05421 8994 ft 296 kts
2026-04-26 16:54 29.99770 35.05682 9709 ft 301 kts
2026-04-26 16:55 30.01863 35.05945 10353 ft 306 kts
2026-04-26 16:55 30.04051 35.06217 10572 ft 328 kts
2026-04-26 16:55 30.06392 35.06509 10735 ft 349 kts
2026-04-26 16:55 30.08876 35.06905 10895 ft 370 kts
2026-04-26 16:56 30.14134 35.08035 11646 ft 391 kts
2026-04-26 16:56 30.16819 35.08618 12256 ft 394 kts
2026-04-26 16:56 30.19529 35.09190 12857 ft 398 kts
2026-04-26 16:57 30.22266 35.09758 13424 ft 402 kts
2026-04-26 16:57 30.25033 35.10302 13985 ft 405 kts
2026-04-26 16:57 30.30601 35.11329 14995 ft 411 kts
2026-04-26 16:58 30.33438 35.11857 15508 ft 415 kts
2026-04-26 16:58 30.35369 35.12224 15834 ft 417 kts
2026-04-26 16:58 30.42087 35.13523 16966 ft 425 kts
2026-04-26 16:59 30.45017 35.14091 17455 ft 428 kts
2026-04-26 16:59 30.50927 35.15234 18390 ft 434 kts
2026-04-26 17:00 30.56889 35.16620 19207 ft 441 kts 17°
2026-04-26 17:00 30.62615 35.19380 19953 ft 449 kts 22°
2026-04-26 17:00 30.65496 35.20842 20071 ft 456 kts 22°
2026-04-26 17:01 30.68434 35.22296 20075 ft 463 kts 19°
2026-04-26 17:01 30.71540 35.23366 20088 ft 468 kts 11°
2026-04-26 17:01 30.74737 35.24181 20089 ft 472 kts 10°
2026-04-26 17:01 30.77953 35.24949 20078 ft 470 kts 10°
2026-04-26 17:02 30.81150 35.25711 20087 ft 469 kts 10°
2026-04-26 17:02 30.84341 35.26490 20087 ft 468 kts 10°
2026-04-26 17:02 30.87525 35.27288 20080 ft 468 kts 11°
2026-04-26 17:02 30.90672 35.28094 19832 ft 457 kts 11°
2026-04-26 17:03 30.93737 35.28888 19594 ft 445 kts 11°
2026-04-26 17:03 30.96741 35.29671 19354 ft 440 kts 11°
2026-04-26 17:03 30.99714 35.30445 19119 ft 438 kts 11°
2026-04-26 17:03 31.02689 35.31219 18894 ft 437 kts 11°
2026-04-26 17:04 31.05620 35.31981 18664 ft 437 kts 11°
2026-04-26 17:04 31.08619 35.32761 18440 ft 433 kts 11°
2026-04-26 17:04 31.11516 35.33515 18216 ft 433 kts 11°
2026-04-26 17:04 31.14458 35.34282 17955 ft 433 kts 11°
2026-04-26 17:05 31.17385 35.35044 17696 ft 430 kts 11°
2026-04-26 17:05 31.20288 35.35802 17516 ft 425 kts 11°
2026-04-26 17:05 31.23169 35.36554 17347 ft 422 kts 11°
2026-04-26 17:05 31.26027 35.37300 17178 ft 420 kts 11°
2026-04-26 17:06 31.28873 35.38043 17016 ft 420 kts 11°
2026-04-26 17:06 31.31722 35.38788 16585 ft 419 kts 11°
2026-04-26 17:06 31.34571 35.39519 15955 ft 417 kts 10°
2026-04-26 17:06 31.37402 35.40170 15373 ft 413 kts
2026-04-26 17:07 31.40216 35.40780 14788 ft 409 kts
2026-04-26 17:07 31.43010 35.41380 14206 ft 406 kts
2026-04-26 17:07 31.45776 35.41980 13596 ft 404 kts
2026-04-26 17:07 31.48534 35.42586 12958 ft 401 kts
2026-04-26 17:08 31.51263 35.43191 12363 ft 398 kts
2026-04-26 17:08 31.53967 35.43794 11772 ft 394 kts 10°
2026-04-26 17:08 31.56654 35.44394 11201 ft 391 kts 10°
2026-04-26 17:08 31.59319 35.44989 10629 ft 389 kts 10°
2026-04-26 17:09 31.61959 35.45579 10213 ft 383 kts 10°
2026-04-26 17:09 31.63692 35.45976 10126 ft 381 kts 11°
2026-04-26 17:09 31.67198 35.46809 10033 ft 385 kts 11°
2026-04-26 17:09 31.69813 35.47435 10015 ft 382 kts 11°
2026-04-26 17:10 31.72437 35.47936 9995 ft 383 kts 360°
2026-04-26 17:10 31.75005 35.47367 10019 ft 371 kts 335°
2026-04-26 17:10 31.77132 35.45772 10023 ft 365 kts 315°
2026-04-26 17:10 31.78960 35.43632 10031 ft 374 kts 311°
2026-04-26 17:11 31.80753 35.41406 10005 ft 374 kts 311°
2026-04-26 17:11 31.82533 35.39181 9891 ft 373 kts 311°
2026-04-26 17:11 31.84292 35.36999 9739 ft 372 kts 311°
2026-04-26 17:11 31.86076 35.34808 9588 ft 371 kts 311°
2026-04-26 17:12 31.89648 35.30457 9276 ft 369 kts 311°
2026-04-26 17:12 31.91431 35.28291 9124 ft 368 kts 311°
2026-04-26 17:13 31.94886 35.23882 8786 ft 363 kts 300°
2026-04-26 17:13 31.95324 35.23019 8723 ft 361 kts 296°
2026-04-26 17:13 31.96870 35.19493 8568 ft 360 kts 295°
2026-04-26 17:14 31.98017 35.16869 8408 ft 359 kts 295°
2026-04-26 17:14 32.00298 35.11742 7602 ft 350 kts 295°
2026-04-26 17:14 32.01437 35.09206 6992 ft 350 kts 296°
2026-04-26 17:15 32.03687 35.04225 6318 ft 334 kts 296°
2026-04-26 17:15 32.04760 35.01856 6130 ft 322 kts 296°
2026-04-26 17:15 32.05790 34.99577 6021 ft 309 kts 296°
2026-04-26 17:16 32.06791 34.97366 6005 ft 302 kts 296°
2026-04-26 17:16 32.07762 34.95221 5989 ft 292 kts 296°
2026-04-26 17:16 32.08704 34.93142 5856 ft 282 kts 296°
2026-04-26 17:16 32.09611 34.91137 5741 ft 273 kts 296°
2026-04-26 17:17 32.10500 34.89166 5600 ft 274 kts 296°
2026-04-26 17:17 32.11412 34.87134 5622 ft 285 kts 296°
2026-04-26 17:17 32.12328 34.85091 5556 ft 277 kts 296°
2026-04-26 17:17 32.13215 34.83116 5383 ft 268 kts 296°
2026-04-26 17:18 32.14081 34.81182 5117 ft 266 kts 296°
2026-04-26 17:18 32.14938 34.79258 4886 ft 263 kts 296°
2026-04-26 17:18 32.15776 34.77369 4624 ft 257 kts 296°
2026-04-26 17:18 32.16590 34.75526 4366 ft 249 kts 296°
2026-04-26 17:19 32.18118 34.72024 4019 ft 231 kts 291°
2026-04-26 17:19 32.18326 34.70226 4003 ft 215 kts 258°
2026-04-26 17:19 32.17694 34.68710 3890 ft 203 kts 230°
2026-04-26 17:20 32.16650 34.67602 3510 ft 205 kts 206°
2026-04-26 17:20 32.16212 34.67420 3382 ft 205 kts 189°
2026-04-26 17:20 32.14032 34.68303 3161 ft 206 kts 153°
2026-04-26 17:20 32.12747 34.69088 3039 ft 210 kts 155°
2026-04-26 17:21 32.11437 34.69865 2916 ft 211 kts 155°
2026-04-26 17:21 32.10138 34.70632 2804 ft 205 kts 153°
2026-04-26 17:21 32.09150 34.71743 2668 ft 194 kts 118°
2026-04-26 17:21 32.08504 34.73132 2574 ft 193 kts 124°
2026-04-26 17:22 32.07783 34.74436 2476 ft 189 kts 123°
2026-04-26 17:22 32.07083 34.75756 2234 ft 188 kts 122°
2026-04-26 17:22 32.06417 34.77039 2038 ft 179 kts 122°
2026-04-26 17:22 32.05799 34.78232 1828 ft 167 kts 122°
2026-04-26 17:23 32.05200 34.79386 1601 ft 162 kts 121°
2026-04-26 17:23 32.04622 34.80504 1389 ft 161 kts 121°
2026-04-26 17:23 32.04047 34.81620 1160 ft 160 kts 121°
2026-04-26 17:23 32.03468 34.82736 943 ft 157 kts 122°
2026-04-26 17:24 32.02891 34.83846 736 ft 162 kts 121°
2026-04-26 17:24 32.02310 34.84967 490 ft 157 kts 122°
2026-04-26 17:24 32.01733 34.86078 264 ft 160 kts 122°
2026-04-26 17:24 32.01151 34.87198 120 ft 156 kts 119°
2026-04-26 17:25 32.00824 34.87829 118 ft 115 kts 121°
2026-04-26 17:25 32.00523 34.88410 120 ft 51 kts 121°
2026-04-26 17:25 32.00354 34.88613 120 ft 31 kts 148°
2026-04-26 17:25 32.00222 34.88690 118 ft 19 kts 164°
2026-04-26 17:26 32.00109 34.88681 114 ft 13 kts 239°
2026-04-26 17:26 32.00125 34.88581 118 ft 13 kts 302°
2026-04-26 17:26 32.00173 34.88490 116 ft 14 kts 301°
2026-04-26 17:26 32.00223 34.88397 117 ft 13 kts 302°
2026-04-26 17:27 32.00271 34.88305 118 ft 14 kts 302°
2026-04-26 17:27 32.00322 34.88208 118 ft 14 kts 301°
2026-04-26 17:27 32.00373 34.88108 117 ft 14 kts 301°
2026-04-26 17:27 32.00425 34.88009 118 ft 14 kts 301°
2026-04-26 17:28 32.00429 34.87911 116 ft 13 kts 224°
2026-04-26 17:28 32.00353 34.87852 119 ft 13 kts 212°
2026-04-26 17:28 32.00278 34.87797 117 ft 13 kts 212°
2026-04-26 17:28 32.00204 34.87745 117 ft 12 kts 212°
2026-04-26 17:29 32.00134 34.87694 117 ft 10 kts 211°
2026-04-26 17:29 32.00104 34.87684 119 ft 5 kts 169°
2026-04-26 17:29 32.00076 34.87725 117 ft 4 kts 122°